Content
SEND FEEDBACK

Daily
Averages
Monthly
Summary
United States of America

CHICAGO, ILLINOIS


Home > North America > United States > Illinois
Elevation: 674 feet     Latitude: 41 59N     Longitude: 087 54W

WEATHER
 
SELECT A DAY
Number of Records: 198,755;   Date Range: 7/8/95 - 11/22/14
 
SHARE

PRINT THIS DATA

[ ← Previous Day ]
WEATHER ALMANAC - APRIL 28, 2013
[ Next Day → ]
[ °C ]   °F
Weather ElementAverageHighLow
Temperature56.6 °F64.9 °F (2:52 pm)51.1 °F (11:52 pm)
Dewpoint48.2 °F51.8 °F (12:59 pm)42.1 °F (1:52 am)
Humidity74.1 %89 % (11:52 pm)61 % (2:52 pm)
Barometer29.91 in29.99 in (1:52 am)29.85 in (5:52 pm)
Wind Speed3.7 mph8.1 mph (3:52 pm)
Weather ElementAverage
Visibility8.5 mi
Wind DirectionENE (71.2 °)

Weather ElementTotal
Precipitation---
Heating Degree Days7 (Base 65)
Growing Degree Days8 (Base 50)
Averaged from 26 records on April 28, 2013
WEATHER CONDITIONS BREAKOUT
WIND DIRECTION BREAKOUT
WEATHER BY HOUR - APRIL 28, 2013
[ °C ]   °F
Local TimeTemperatureDewpointHumidityBarometerVisibilityWind DirectionWind SpeedGust SpeedPrecipitationEventsConditions
1:52 AM53.1 °F42.1 °F66 %29.99 in10.0 miCalm
2:52 AM53.1 °F42.1 °F66 %29.97 in10.0 miCalm
3:52 AM54.0 °F45.0 °F72 %29.96 in8.0 miCalm
4:52 AM52.0 °F46.9 °F83 %29.94 in8.0 miCalmRainLight Rain
5:52 AM53.1 °F48.9 °F86 %29.94 in6.0 miCalmMist
6:52 AM54.0 °F48.9 °F83 %29.94 in4.0 miCalmHaze
7:00 AM53.6 °F50.0 °F88 %29.93 in4.0 miCalmOvercast
7:52 AM54.0 °F48.9 °F83 %29.94 in6.0 miEast (80°)4.6 mphHaze
8:52 AM53.1 °F44.1 °F71 %29.94 in9.0 miNNE (30°)6.9 mphOvercast
9:52 AM54.0 °F44.1 °F69 %29.94 in10.0 miENE (60°)5.8 mphOvercast
10:01 AM55.4 °F44.6 °F67 %29.93 in10.0 miNE (40°)6.9 mphOvercast
10:52 AM55.9 °F46.0 °F69 %29.92 in10.0 miNE (50°)5.8 mphOvercast
11:52 AM57.9 °F48.9 °F72 %29.92 in9.0 miNE (40°)4.6 mphOvercast
12:52 PM61.0 °F51.1 °F70 %29.90 in9.0 miNorth (350°)6.9 mphOvercast
12:59 PM62.6 °F51.8 °F68 %29.89 in9.0 miNorth (350°)4.6 mphMostly Cloudy
1:52 PM64.0 °F51.1 °F63 %29.87 in10.0 miVariable5.8 mphScattered Clouds
2:52 PM64.9 °F51.1 °F61 %29.87 in10.0 miNE (50°)4.6 mphScattered Clouds
3:52 PM62.1 °F50.0 °F65 %29.86 in10.0 miEast (80°)8.1 mphMostly Cloudy
4:52 PM62.1 °F51.1 °F67 %29.86 in10.0 miVariable4.6 mphClear
5:52 PM62.1 °F51.1 °F67 %29.85 in10.0 miNE (50°)5.8 mphClear
6:52 PM59.0 °F50.0 °F72 %29.86 in10.0 miESE (120°)6.9 mphScattered Clouds
7:52 PM57.0 °F50.0 °F77 %29.86 in10.0 miESE (120°)3.5 mph
8:52 PM55.9 °F50.0 °F80 %29.87 in10.0 miESE (120°)4.6 mph
9:52 PM54.0 °F50.0 °F86 %29.88 in8.0 miSE (130°)3.5 mph
10:52 PM52.0 °F48.0 °F86 %29.88 in6.0 miSouth (180°)3.5 mphMist
11:52 PM51.1 °F48.0 °F89 %29.87 in5.0 miCalmMist
Hourly data recorded from KPWK, located miles away from Chicago, Illinois







STORIES FROM OUR PARTNERS